{"data":{"norad_id":58213,"epoch":"2026-05-25T05:01:19.826400Z","epoch_age_seconds":47156,"freshness":"FRESH","line1":"1 58213U 23170H   26145.20925725  .00001032  00000+0  47013-4 0  9996","line2":"2 58213  43.0021 121.9548 0001375 284.3314  75.7385 15.27582771142009","mean_motion":15.27582771,"eccentricity":0.0001375,"inclination_deg":43.0021,"raan_deg":121.9548,"arg_perigee_deg":284.3314,"mean_anomaly_deg":75.7385,"bstar":4.7013e-5,"rev_number":14200,"period_min":94.266577715938,"perigee_km":482.09738673402,"apogee_km":483.98421062865,"semimajor_km":6861.1777986813,"source":"CELESTRAK","updated_at":"2026-05-25T13:38:18.575333Z"}}